Regional Weather Roundup
Issued by NWS Charleston, SC

Current Version | Previous Version | Graphics & Text | Print | Product List | Glossary On
Versions: 1 2 3 4 5 6 7 8 9 10 11 12 13 14 15 16 17 18 19 20 21 22 23 24 25 26 27 28 29 30 31 32 33 34 35 36 37 38 39 40 41 42 43 44 45 46 47 48 49 50
000 ASUS42 KCHS 111526 RWRCHS REGIONAL WEATHER ROUNDUP NATIONAL WEATHER SERVICE CHARLESTON SC 1000 AM EST MON DEC 11 2017 NOTE: "FAIR" INDICATES FEW OR NO CLOUDS BELOW 12,000 FEET WITH NO SIGNIFICANT WEATHER AND/OR OBSTRUCTIONS TO VISIBILITY. NOT ALL STATIONS ARE QUALITY CONTROLLED. USE DATA WITH CAUTION... ESPECIALLY DEWPOINT OBSERVATIONS. SCZ027-030-031-034>040-042>050-111600- ...SOUTHEAST SOUTH CAROLINA... CITY SKY/WX TMP DP RH WIND PRES REMARKS N CHARLESTON SUNNY 43 31 62 W7 30.22R WATERFRONT PRK N/A 44 31 60 W7 30.07R JOHNS ISLAND FAIR 48 32 53 NW9 30.22S PINOPOLIS N/A 37 32 81 VRB3 30.14R MONCKS CORNER FAIR 43 30 61 CALM 30.20F HAZE SUMMERVILLE FAIR 41 32 70 SW3 30.22F BEAUFORT MCAS SUNNY 46 33 60 W10 30.24R BEAUFORT ARPT FAIR 46 32 57 W8 30.23S HILTON HEAD IS NOT AVBL WALTERBORO SUNNY 45 32 61 W6 30.22S ALLENDALE FAIR 45 30 57 VRB6 30.21S ...SOUTHERN MIDLANDS AND PEE DEE... CITY SKY/WX TMP DP RH WIND PRES REMARKS GEORGETOWN FAIR 43 32 65 W3 30.20F KINGSTREE FAIR 41 32 70 CALM 30.20R ORANGEBURG SUNNY 43 29 57 NW8 30.20S BARNWELL N/A 48 32 53 SW6 30.21R AIKEN FAIR 43 30 61 NW6 30.22S MANNING FAIR 43 32 65 MISG 30.20S COLUMBIA SUNNY 42 34 73 CALM 30.19R SUMTER SUNNY 42 28 59 W6 30.17R FLORENCE SUNNY 41 30 65 NW3 30.18F MYRTLE BEACH SUNNY 43 30 60 W7 30.20F N MYRTLE BEACH SUNNY 43 30 60 VRB5 30.18F $$ GAZ063-065-086>088-099>101-113>116-118-119-134>141-150-111600- ...SOUTHEAST GEORGIA... CITY SKY/WX TMP DP RH WIND PRES REMARKS SAVANNAH ARPT SUNNY 46 31 55 W7 30.25S HUNTER AAF SUNNY 46 33 59 W10 N/A FORT STEWART SUNNY 47 31 53 W6 30.23F STATESBORO SUNNY 48 29 47 W7 30.23S SYLVANIA SUNNY 46 34 64 NW7 30.24R CLAXTON FAIR 47 34 60 SW6 30.25S ...CSRA...CENTRAL AND FAR SOUTHEAST GEORGIA... CITY SKY/WX TMP DP RH WIND PRES REMARKS THOMSON SUNNY 46 29 52 N8 30.25R AUGUSTA-BUSH SUNNY 46 31 55 W6 30.20S AUGUSTA-DANIEL SUNNY 46 29 51 VRB6 30.19F SWAINSBORO FAIR 46 34 61 W6 30.24S VIDALIA SUNNY 50 34 53 W5 30.24F EASTMAN FAIR 49 24 37 W3 30.27F HAZLEHURST FAIR 49 25 38 W3 30.24F ALMA SUNNY 48 34 58 W6 30.26S WAYCROSS SUNNY 49 32 50 W7 30.27F JESUP FAIR 46 34 61 CALM 30.26F BAXLEY FAIR 46 32 57 W6 30.25F BRUNSWICK SUNNY 46 32 57 W8 30.27F SAINT SIMONS SUNNY 48 34 58 SW8 30.27S $$ SCZ027-028-034-036>038-045-046-048>050-GAZ119-141-111600- ...LAKE AND SUPPLEMENTAL COASTAL OBSERVATIONS... STATION/POSITION TIME TEMP WIND PRES WAVE SWELL AIR SEA DIR/SP/G HT/PER HT/PER/DIR (UTC) (F) (DEG/KT/KT) (MB) (FT/S) (FT/S/D) WINYAH BAY 1430 41 300/ 6 1023.0S LAKE MURRAY 1450 42 260/ 4/ 6 1021.3R ACE BASIN NERRS 1445 45 270/ 3 1024.0R FORT PULASKI 1500 46 55 300/ 10/ 12 1024.3 SAPELO ISLAND NOT AVBL $$ ANZ835-935-AMZ111-154-330-350-352-354-370-450-454-472-111600- ...C-MAN AND BUOY OBSERVATIONS... STATION/POSITION TIME TEMP WIND PRES WAVE SWELL AIR SEA DIR/SP/G HT/PER HT/PER/DIR (UTC) (F) (DEG/KT/KT) (MB) (FT/S) (FT/S/D) BUOY 41004 1510 73 290/ 12/ 17 1022.6 BUOY 41008 1450 49 60 270/ 14/ 17 1024.3F 2/ 3 2/ 90/ 8 FOLLY BEACH CMAN 1500 45 290/ 6/ 8 1023.6R CAPERS NEARSHORE 1508 43 57 300/ 10/ 16 1022.7F FRIPP NEARSHORE 1508 47 54 270/ 10/ 17 1023.2F STATION/POSITION TIME TEMP WIND PRES WAVE SWELL AIR SEA DIR/SP/G HT/PER HT/PER/DIR (UTC) (F) (DEG/KT/KT) (MB) (FT/S) (FT/S/D) 5E ST. MARYS GA 1500 59 N/A 2/10 FRYING PAN BUOY 1510 51 62 300/ 10/ 14 1021.8 BUOY 41025 1510 51 74 290/ 14/ 19 1021.2 CAPE LOOKOUT NC 1500 300/ 6/ 7 1022.0F BUOY 41002 1450 64 76 310/ 8/ 12 1021.9S 4/ 8 3/ 80/ 8 BUOY 41010 NOT AVBL ST AUGUSTINE FL 1500 50 60 320/ 7/ 9 1026.0F $$

USA.gov is the U.S. government's official web portal to all federal, state and local government web resources and services.